Sitka Rocky Gutierrez current weather conditions

sailwx.info

Wind from 090 at 5 knots

Air temperature 6.0° C
Visibility: greater than 7.0 NM
Dewpoint 5.0° C
Present weather: Light rain.

Last reported at 2015-Jan-29 21:53 UTC.
Time now 2015-Jan-30 00:29 UTC

Location: N 57°03' W 135°22'.
View on Google Maps.

See reports from other nearby stations

  
Tides and Currents Weather Stations Pressure Air Temp Water Temp Dewpoint Dewpoint Depression Visibility Wind Speed Wind Dir Waves Ship Positions
date/time (UTC)wind fromknots sea level pressurealtimeterstation pressurevisibilityair tempwater tempwave heightnotes
2015-Jan-29 23:05 120 5 8.7 6.0
2015-Jan-29 22:53 110 6 8.7 6.0
2015-Jan-29 21:53 090 5 7.0 6.0 Light rain.
2015-Jan-29 20:53 080 7 5.2 5.0 Light rain. Mist.
2015-Jan-29 19:53 040 5 8.7 5.0
2015-Jan-29 19:32 270 12 4.3 5.0 Rain. Mist.
2015-Jan-29 19:30 270 15 2.2 4.0 Rain. Mist.
2015-Jan-29 18:53 190 5 7.8 7.0
2015-Jan-29 17:53 210 9 8.7 7.0
2015-Jan-29 17:31 200 8 8.7 7.0
2015-Jan-29 16:53 230 14 8.7 7.0
2015-Jan-29 15:53 190 5 8.7 6.0
2015-Jan-29 14:53 8.7 6.0 Light rain.
2015-Jan-29 14:01 090 10 8.7 5.0
2015-Jan-29 13:53 110 7 8.7 5.0
2015-Jan-29 13:29 090 9 7.8 6.0 Light rain.
2015-Jan-29 12:53 130 7 7.0 6.0 Light rain.
2015-Jan-29 12:36 110 8 4.3 6.0 Rain. Mist.
2015-Jan-29 12:14 120 5 8.7 6.0
2015-Jan-29 11:53 110 6 8.7 6.0
2015-Jan-29 10:53 8.7 7.0
2015-Jan-29 09:53 180 5 8.7 6.0
2015-Jan-29 08:53 190 9 8.7 6.0
2015-Jan-29 08:13 160 8 8.7 7.0
2015-Jan-29 07:53 170 9 8.7 7.0
2015-Jan-29 07:40 170 8 8.7 7.0
2015-Jan-29 06:53 180 9 gusting 18 2.6 7.0 Mist.
2015-Jan-29 06:39 180 10 2.6 7.0 Light rain. Mist.
2015-Jan-29 06:14 170 11 gusting 20 7.0 7.0
2015-Jan-29 05:53 170 13 gusting 26 7.0 7.0
2015-Jan-29 05:41 170 12 gusting 17 8.7 7.0
2015-Jan-29 04:53 130 13 7.0 7.0 Light rain.
2015-Jan-29 03:53 120 13 8.7 7.0 Light rain.
2015-Jan-29 03:32 120 15 gusting 20 8.7 7.0
2015-Jan-29 02:53 110 17 gusting 25 8.7 8.0
2015-Jan-29 01:53 100 20 8.7 7.0
2015-Jan-29 00:53 100 20 gusting 32 8.7 7.0
2015-Jan-28 23:53 110 20 gusting 27 8.7 6.0 Light rain.
2015-Jan-28 22:53 110 19 7.8 5.0 Light rain.
2015-Jan-28 21:53 120 18 gusting 25 7.8 6.0 Light rain.
2015-Jan-28 20:53 110 20 gusting 27 8.7 6.0 Light rain.
2015-Jan-28 19:53 110 20 gusting 25 8.7 6.0 Light rain.
2015-Jan-28 18:53 110 20 gusting 27 8.7 7.0
2015-Jan-28 17:53 110 16 gusting 24 8.7 7.0
2015-Jan-28 16:53 110 19 gusting 26 8.7 7.0
2015-Jan-28 15:53 110 19 gusting 25 8.7 6.0
2015-Jan-28 14:53 110 13 8.7 6.0
2015-Jan-28 13:53 100 14 gusting 22 8.7 6.0
2015-Jan-28 12:53 110 17 gusting 23 8.7 5.0
2015-Jan-28 11:53 100 9 8.7 3.0
2015-Jan-28 11:37 090 9 8.7 3.0
2015-Jan-28 11:01 090 9 gusting 17 8.7 4.0 Light rain.
2015-Jan-28 10:53 090 14 gusting 20 8.7 4.0 Light rain.
2015-Jan-28 09:53 120 12 8.7 4.0
2015-Jan-28 08:53 110 15 8.7 4.0
2015-Jan-28 07:53 120 11 8.7 3.0
2015-Jan-28 06:53 100 11 8.7 3.0
2015-Jan-28 05:53 080 7 8.7 3.0
2015-Jan-28 04:53 100 9 8.7 2.0
2015-Jan-28 03:53 100 7 8.7 2.0
2015-Jan-28 02:53 110 7 8.7 2.0
2015-Jan-28 01:53 090 6 8.7 2.0
2015-Jan-28 00:53 120 7 8.7 2.0